Flag for Belgium Weather past 2 weeks in Ghent, Belgium

Now
56 °F

Cool.


Feels Like: 56 °F
Forecast: 46 / 62 °F
Wind: 3 mph from Southwest

Location: Munte

Current Time: Oct 26, 2014 at 10:52:08 AM

Latest Report: Oct 26, 2014 at 10:00 AM


Visibility: 14 mi

Pressure: 30.27 "Hg

Humidity: 83%

Dew point: 50 °F

Location of GhentLocation

Historic Weather in Ghent — Graph

°F

Ghent temperature yesterday

Maximum temperature yesterday: 58 °F (at 3:00 PM)
Minimum temperature yesterday: 54 °F (at 12:00 AM)
Average temperature yesterday: 55 °F

Past Weeks' High & Low Weather Summary

 TemperatureHumidityPressure
High73 °F (Oct 18, 4:00 PM)100% (Oct 11, 12:00 PM)30.26 "Hg (Oct 11, 12:00 PM)
Low47 °F (Oct 22, 5:00 AM)57% (Oct 25, 5:00 PM)29.57 "Hg (Oct 13, 7:00 AM)
Average56 °F84%29.93 "Hg
* Reported Oct 11 10:00 AM — Oct 26 9:00 AM, Ghent, Weather by CustomWeather, © 2014

Note: Actual official high and low records may vary slightly from our data, if they occured in-between our weather recording intervals... More about our weather records

Advertising

Ghent weather history for previous 24 hours

 ConditionsComfort  
Time TempWeatherWind HumidityBarometerVisibility
9:00 AM
Oct 26
54 °FCool.2 mph86%30.26 "Hg19 mi
8:00 AM53 °FCool.3 mph88%30.26 "Hg19 mi
7:00 AM53 °FCool.2 mph88%30.24 "Hg22 mi
6:00 AM54 °FCool.3 mph85%30.24 "Hg25 mi
5:00 AM54 °FCool.3 mph85%30.24 "Hg19 mi
4:00 AM54 °FCool.3 mph86%30.23 "Hg15 mi
3:00 AM54 °FCool.N/A85%30.24 "Hg15 mi
2:00 AM54 °FCool.2 mph84%30.23 "Hg19 mi
2:00 AM54 °FCool.3 mph84%30.23 "Hg18 mi
1:00 AM54 °FCool.2 mph81%30.22 "Hg18 mi
12:00 AM55 °FCool.2 mph76%30.22 "Hg25 mi
11:00 PM
Oct 25
55 °FCool.2 mph76%30.21 "Hg22 mi
10:00 PM54 °FCool.2 mph78%30.19 "Hg22 mi
9:00 PM55 °FCool.2 mph75%30.18 "Hg25 mi
8:00 PM55 °FCool.N/A76%30.18 "Hg13 mi
7:00 PM56 °FCool.N/A70%30.16 "Hg25 mi
6:00 PM56 °FCool.N/A64%30.15 "Hg28 mi
5:00 PM58 °FRefreshingly cool.3 mph57%30.14 "Hg31 mi
4:00 PM58 °FRefreshingly cool.3 mph59%30.14 "Hg19 mi
3:00 PM58 °FCool.3 mph62%30.13 "Hg19 mi
2:00 PM57 °FCool.3 mph68%30.13 "Hg28 mi
1:00 PM57 °FCool.3 mph82%30.12 "Hg12 mi
12:00 PM57 °FFog.2 mph94%30.11 "Hg3 mi
11:00 AM55 °FFog.3 mph96%30.10 "Hg2 mi
10:00 AM55 °FFog.3 mph98%30.08 "Hg2 mi
Weather by CustomWeather, © 2014

See weather overviewHow to use our weather pages